User: anonymous   Login
Location: Oshawa
(43.9000°N, 78.8670°W)
Time: 03:06:57
(UTC-04:00)
Language:

Envisat - Orbit

View from above orbital plane
View from above orbital plane
View from above satellite
View from above satellite

Ground track
Ground track

The orbit data is extracted from the following two-line orbital elements,

1 27386U 02009A   16268.77326682  .00000012  00000-0  17867-4 0  9997
2 27386  98.2734 318.5709 0001188  76.7838 283.3473 14.37876378762932
Epoch (UTC): 24 September 2016 18:33:30
Eccentricity: 0.0001188
inclination: 98.2734°
perigee height: 764 km
apogee height: 766 km
right ascension of ascending node: 318.5709°
argument of perigee: 76.7838°
revolutions per day: 14.37876378
mean anomaly at epoch: 283.3473°
orbit number at epoch: 76293

The dashed part of the orbit path shows where the satellite is in the earth's shadow,  

DLR